Location: Unspecified
(38.9820°N, 94.4650°W)
Time: 03:40:59
(UTC-05:00)

Resurs 1-4 Rocket - Visible Passes

Search period start: 29 July 2014 00:00
Search period end: 08 August 2014 00:00
Orbit: 800 x 815 km, 98.3° (Epoch: 27 July)

Date Brightness Start Highest point End Pass type
(mag) Time Alt. Az. Time Alt. Az. Time Alt. Az.
29 Jul 2.8 05:09:12 10° NNE 05:14:21 54° E 05:19:27 10° S visible
30 Jul 3.7 04:45:11 10° NE 04:49:50 31° E 04:54:27 10° SSE visible
31 Jul 4.5 04:21:37 10° NE 04:25:14 19° E 04:28:49 10° SE visible
01 Aug 5.0 03:59:56 10° E 04:00:32 10° E 04:01:08 10° E visible
01 Aug 2.1 05:35:45 10° NNE 05:41:01 85° WNW 05:46:15 10° SSW visible
02 Aug 2.7 05:11:25 10° NNE 05:16:36 57° E 05:21:44 10° S visible
03 Aug 3.6 04:47:22 10° NNE 04:52:05 33° E 04:56:47 10° SSE visible
04 Aug 4.4 04:23:44 10° NE 04:27:30 20° E 04:31:15 10° SE visible
05 Aug 4.8 04:01:23 10° ENE 04:02:49 11° E 04:04:15 10° ESE visible
05 Aug 2.1 05:37:59 10° N 05:43:15 80° WNW 05:48:29 10° SSW visible
06 Aug 2.6 05:13:38 10° NNE 05:18:50 61° E 05:24:01 10° S visible
07 Aug 3.5 04:49:33 10° NNE 04:54:21 35° E 04:59:07 10° SSE visible
